Date String (YYYY-MM-DD hh:mm:ss) UTC,Instrument flags,Ambient pressure (hPa),Sample flow (lpm),Bypass flow (lpm),Sample temperature (°C),Ambient temperature (°C),ASC tube jacket temperature (°C),LED temperature (°C),Box temperature (°C),Sample RH (%),Span deviation,Mass concentration (μg/m³),Mass concentration (μg/m³),Mass concentration (μg/m³)
DateTimeUTC,F1_M11,P_M11,Q1_M11,Q2_M11,T1_M11,T2_M11,T3_M11,T4_M11,T5_M11,U1_M11,ZSPAN_M11,X0_M11,X2_M11,X1_M11
2022-06-26 10:00:00,,0837.9,5.00,0.00,30.2,29.1,00.0,39.0,32.0,21.9,0000.0,0008.96,0003.51,0002.41
2022-06-26 10:01:00,,0837.9,5.01,0.00,30.2,29.1,00.0,39.0,32.0,21.5,0000.0,0008.17,0003.48,0002.41
2022-06-26 10:02:00,,0837.9,5.00,0.00,30.2,29.1,00.0,39.0,32.0,21.0,0000.0,0008.14,0003.45,0002.42
2022-06-26 10:03:00,,0837.9,4.99,0.00,30.2,29.1,00.0,39.0,32.0,20.9,0000.0,0008.05,0003.44,0002.41
2022-06-26 10:04:00,,0838.0,5.00,0.00,30.2,29.1,00.0,39.1,32.0,20.7,0000.0,0007.47,0003.46,0002.40
2022-06-26 10:05:00,,0837.9,5.00,0.00,30.2,29.1,00.0,39.1,32.0,20.5,0000.0,0007.52,0003.49,0002.40
2022-06-26 10:06:00,,0837.9,4.99,0.00,30.2,29.1,00.0,39.1,32.0,21.5,0000.0,0007.67,0003.50,0002.41
2022-06-26 10:07:00,,0837.9,4.99,0.00,30.2,29.1,00.0,39.1,32.1,22.2,0000.0,0007.69,0003.50,0002.43
2022-06-26 10:08:00,,0838.0,5.00,0.00,30.2,29.1,00.0,39.1,32.1,22.5,0000.0,0007.63,0003.49,0002.43
2022-06-26 10:09:00,,0838.0,5.00,0.00,30.2,29.2,00.0,39.1,32.1,22.7,0000.0,0007.29,0003.48,0002.45
2022-06-26 10:10:00,,0838.0,4.99,0.00,30.2,29.2,00.0,39.1,32.1,22.6,0000.0,0007.30,0003.50,0002.44
2022-06-26 10:11:00,,0838.0,5.00,0.00,30.3,29.2,00.0,39.1,32.1,22.7,0000.0,0007.17,0003.46,0002.44
2022-06-26 10:12:00,,0838.0,5.00,0.00,30.3,29.2,00.0,39.1,32.1,22.4,0000.0,0007.15,0003.46,0002.45
2022-06-26 10:13:00,,0838.0,4.99,0.00,30.3,29.2,00.0,39.1,32.1,22.3,0000.0,0007.44,0003.49,0002.45
2022-06-26 10:14:00,,0838.0,5.00,0.00,30.3,29.2,00.0,39.1,32.1,22.5,0000.0,0007.92,0003.48,0002.47
2022-06-26 10:15:00,,0838.0,5.01,0.00,30.3,29.2,00.0,39.1,32.1,21.8,0000.0,0008.02,0003.50,0002.49
2022-06-26 10:16:00,,0838.0,5.00,0.00,30.3,29.2,00.0,39.1,32.1,21.8,0000.0,0008.18,0003.49,0002.49
2022-06-26 10:17:00,,0838.0,4.99,0.00,30.3,29.2,00.0,39.1,32.1,20.4,0000.0,0008.50,0003.50,0002.50
2022-06-26 10:18:00,,0838.0,4.99,0.00,30.3,29.2,00.0,39.1,32.1,19.6,0000.0,0008.79,0003.49,0002.52
2022-06-26 10:19:00,,0838.0,5.00,0.00,30.3,29.2,00.0,39.1,32.1,19.5,0000.0,0008.76,0003.50,0002.56
2022-06-26 10:20:00,,0838.0,5.00,0.00,30.3,29.2,00.0,39.1,32.1,21.1,0000.0,0008.83,0003.49,0002.56
2022-06-26 10:21:00,,0838.0,4.99,0.00,30.3,29.2,00.0,39.1,32.1,20.6,0000.0,0008.91,0003.47,0002.57
2022-06-26 10:22:00,,0838.0,5.02,0.00,30.3,29.3,00.0,39.1,32.1,20.7,0000.0,0008.99,0003.51,0002.58
2022-06-26 10:23:00,,0838.0,5.01,0.00,30.3,29.3,00.0,39.1,32.1,19.6,0000.0,0009.15,0003.57,0002.59
2022-06-26 10:24:00,,0838.0,5.01,0.00,30.3,29.3,00.0,39.1,32.1,18.6,0000.0,0009.41,0003.56,0002.61
2022-06-26 10:25:00,,0837.9,5.01,0.00,30.3,29.3,00.0,39.2,32.1,18.3,0000.0,0009.30,0003.58,0002.63
2022-06-26 10:26:00,,0837.9,5.00,0.00,30.3,29.3,00.0,39.2,32.1,18.6,0000.0,0010.05,0003.60,0002.65
2022-06-26 10:27:00,,0837.9,5.01,0.00,30.4,29.3,00.0,39.2,32.1,18.7,0000.0,0009.83,0003.61,0002.68
2022-06-26 10:28:00,,0838.0,4.99,0.00,30.4,29.3,00.0,39.2,32.2,18.7,0000.0,0009.36,0003.60,0002.70
2022-06-26 10:29:00,,0838.0,5.00,0.00,30.4,29.3,00.0,39.2,32.2,18.7,0000.0,0009.24,0003.64,0002.71
2022-06-26 10:30:00,,0838.0,5.00,0.00,30.4,29.3,00.0,39.2,32.2,19.0,0000.0,0009.25,0003.63,0002.69
2022-06-26 10:31:00,,0838.0,5.00,0.00,30.4,29.3,00.0,39.2,32.2,19.3,0000.0,0009.57,0003.66,0002.70
2022-06-26 10:32:00,,0838.0,5.00,0.00,30.4,29.3,00.0,39.2,32.2,18.4,0000.0,0009.78,0003.67,0002.71
2022-06-26 10:33:00,,0838.0,4.99,0.00,30.4,29.3,00.0,39.2,32.2,18.2,0000.0,0009.81,0003.67,0002.74
2022-06-26 10:34:00,,0838.0,5.00,0.00,30.4,29.3,00.0,39.2,32.2,18.2,0000.0,0009.74,0003.62,0002.76
2022-06-26 10:35:00,,0838.0,5.00,0.00,30.4,29.3,00.0,39.2,32.2,18.2,0000.0,0009.24,0003.62,0002.79
2022-06-26 10:36:00,,0838.0,4.99,0.00,30.4,29.3,00.0,39.2,32.2,18.4,0000.0,0009.14,0003.62,0002.79
2022-06-26 10:37:00,,0838.0,5.00,0.00,30.4,29.3,00.0,39.2,32.2,18.1,0000.0,0008.42,0003.60,0002.79
2022-06-26 10:38:00,,0838.0,5.00,0.00,30.4,29.4,00.0,39.2,32.2,17.9,0000.0,0008.64,0003.60,0002.80
2022-06-26 10:39:00,,0838.0,5.00,0.00,30.4,29.4,00.0,39.2,32.2,17.8,0000.0,0008.93,0003.60,0002.80
2022-06-26 10:40:00,,0838.0,5.00,0.00,30.4,29.4,00.0,39.3,32.2,17.9,0000.0,0009.69,0003.58,0002.79
2022-06-26 10:41:00,,0838.0,5.01,0.00,30.4,29.4,00.0,39.3,32.2,18.0,0000.0,0009.78,0003.59,0002.81
2022-06-26 10:42:00,,0838.0,4.99,0.00,30.4,29.4,00.0,39.3,32.2,18.5,0000.0,0009.47,0003.61,0002.82
2022-06-26 10:43:00,,0838.0,5.00,0.00,30.4,29.4,00.0,39.3,32.2,18.6,0000.0,0009.21,0003.62,0002.84
2022-06-26 10:44:00,,0838.0,5.01,0.00,30.4,29.4,00.0,39.3,32.2,18.8,0000.0,0009.11,0003.59,0002.85
2022-06-26 10:45:00,,0838.0,5.01,0.00,30.5,29.4,00.0,39.3,32.3,18.8,0000.0,0008.95,0003.57,0002.83
2022-06-26 10:46:00,,0838.0,4.99,0.00,30.5,29.4,00.0,39.3,32.3,18.6,0000.0,0008.79,0003.53,0002.79
2022-06-26 10:47:00,,0838.0,5.01,0.00,30.5,29.4,00.0,39.3,32.3,18.8,0000.0,0009.08,0003.49,0002.78
2022-06-26 10:48:00,,0838.0,5.00,0.00,30.5,29.4,00.0,39.3,32.3,19.2,0000.0,0008.90,0003.49,0002.78
2022-06-26 10:49:00,,0838.0,5.00,0.00,30.5,29.4,00.0,39.3,32.3,19.0,0000.0,0008.77,0003.49,0002.76
2022-06-26 10:50:00,,0838.0,4.99,0.00,30.5,29.4,00.0,39.3,32.3,19.1,0000.0,0009.04,0003.49,0002.75
2022-06-26 10:51:00,,0838.0,5.00,0.00,30.5,29.4,00.0,39.3,32.3,19.4,0000.0,0008.53,0003.53,0002.73
2022-06-26 10:52:00,,0838.0,4.99,0.00,30.5,29.4,00.0,39.3,32.3,19.6,0000.0,0008.65,0003.54,0002.72
2022-06-26 10:53:00,,0838.0,5.00,0.00,30.5,29.4,00.0,39.3,32.3,20.1,0000.0,0009.26,0003.55,0002.72
2022-06-26 10:54:00,,0838.0,5.00,0.00,30.5,29.4,00.0,39.3,32.3,20.6,0000.0,0009.51,0003.55,0002.70
2022-06-26 10:55:00,,0838.0,5.01,0.00,30.5,29.4,00.0,39.3,32.3,21.0,0000.0,0009.47,0003.54,0002.69
2022-06-26 10:56:00,,0838.0,4.99,0.00,30.5,29.4,00.0,39.3,32.3,21.6,0000.0,0009.50,0003.56,0002.70
2022-06-26 10:57:00,,0838.0,5.00,0.00,30.5,29.4,00.0,39.4,32.3,21.1,0000.0,0009.56,0003.57,0002.70
2022-06-26 10:58:00,,0838.0,5.01,0.00,30.5,29.4,00.0,39.4,32.3,19.1,0000.0,0008.96,0003.56,0002.69
2022-06-26 10:59:00,,0838.0,5.01,0.00,30.5,29.5,00.0,39.4,32.3,19.4,0000.0,0008.96,0003.56,0002.68
